Regional Weather Roundup
Issued by NWS

Home | Current Version | Previous Version | Graphics & Text | Print | Product List | Glossary On
Versions: 1 2 3 4 5 6 7 8 9 10 11 12 13 14 15 16 17 18 19 20 21 22 23 24 25 26 27 28 29 30 31 32 33 34 35 36 37 38 39 40 41 42 43 44 45 46 47 48 49 50
000
ASUS43 KOAX 221710
RWRNE

WEATHER ROUNDUP FOR NEBRASKA
NATIONAL WEATHER SERVICE OMAHA NE
1200 PM CDT SAT APR 22 2017

NOTES: SATELLITE DATA IS BEING USED TO AUGMENT CLOUD COVER ABOVE
       12000 FEET.
       "FAIR" INDICATES FEW OR NO CLOUDS BELOW 12,000 FEET WITH NO
       SIGNIFICANT WEATHER AND/OR OBSTRUCTIONS TO VISIBILITY.

  * THESE STATIONS DO NOT REPORT WEATHER SUCH AS RAIN...SNOW OR FOG.

NEZ001>004-019>022-054>056-221800-
NEBRASKA PANHANDLE

CITY           SKY/WX    TMP DP  RH WIND       PRES   REMARKS
SCOTTSBLUFF    MOSUNNY   54  36  50 S9        30.28F
ALLIANCE       MOSUNNY   54  35  48 VRB7      30.28S
CHADRON        MOSUNNY   57  35  43 S6        30.27F
KIMBALL        PTSUNNY   49  38  68 SW7       30.31R
SIDNEY         CLOUDY    49  36  61 VRB3      30.32R
$$

NEZ057>060-069>072-079>082-221800-
SOUTHWEST NEBRASKA

CITY           SKY/WX    TMP DP  RH WIND       PRES   REMARKS
NORTH PLATTE   MOSUNNY   54  32  43 W6        30.32S
IMPERIAL       PTSUNNY   50  33  52 E5        30.32S
LEXINGTON      PTSUNNY   55  34  45 NE7       30.31S
MCCOOK         CLOUDY    53  34  48 N8        30.31S
OGALLALA       MOSUNNY   55  32  40 CALM      30.31S
$$

NEZ005>010-023>029-035>040-094-221800-
NORTH CENTRAL NEBRASKA

CITY           SKY/WX    TMP DP  RH WIND       PRES   REMARKS
VALENTINE      SUNNY     58  30  34 VRB7      30.29F
AINSWORTH      PTSUNNY   55  36  48 NW3       30.31S
BROKEN BOW     MOSUNNY   55  33  43 VRB6      30.30S
O`NEILL        SUNNY     58  33  38 CALM      30.31S
ORD            SUNNY     58  33  39 VRB6      30.29S
THEDFORD       SUNNY     56  33  40 CALM      30.31S
$$

NEZ041-046>049-061>064-073>077-083>087-221800-
SOUTH CENTRAL NEBRASKA

CITY           SKY/WX    TMP DP  RH WIND       PRES   REMARKS
GRAND ISLAND   MOSUNNY   57  33  40 CALM      30.29F
AURORA         MOSUNNY   56  32  39 NE3       30.28S
HASTINGS       MOSUNNY   56  32  40 VRB5      30.30S
HEBRON         MOSUNNY   58  31  36 NE7G18    30.26S
HOLDREGE       SUNNY     55  28  35 N5        30.30S
KEARNEY *      MOSUNNY   57  30  35 NE6       30.30S
YORK           MOSUNNY   57  32  38 N7        30.28S
$$

NEZ011>018-030>034-042>045-221800-
NORTHEAST NEBRASKA

CITY           SKY/WX    TMP DP  RH WIND       PRES   REMARKS
NORFOLK        SUNNY     59  31  34 VRB5      30.28S
ALBION         SUNNY     59  33  38 NE7       30.30S
BLAIR          MOSUNNY   59  37  44 N12       30.26S
FREMONT        MOSUNNY   59  32  37 NE7       30.28S
TEKAMAH        SUNNY     61  34  36 MISG      30.27S
WAYNE          CLOUDY    59  35  39 CALM      30.29S
$$

NEZ050>053-065>068-078-088>093-221800-
SOUTHEAST NEBRASKA

CITY           SKY/WX    TMP DP  RH WIND       PRES   REMARKS
LINCOLN        MOSUNNY   61  34  36 E8        30.28S
OMAHA EPPLEY   PTSUNNY   63  34  33 N13G22    30.25F
BEATRICE       SUNNY     61  34  36 NE13G21   30.25S
FALLS CITY     SUNNY     61  37  41 NE14G22   30.21S
NEBRASKA CITY  MOSUNNY   61  26  26 NE16      30.24F
PLATTSMOUTH    CLOUDY    61  28  28 NE7G18    30.25S
$$

NEZ044-045-051>053-067-221800-
OMAHA AREA

CITY           SKY/WX    TMP DP  RH WIND       PRES   REMARKS
OMAHA EPPLEY   PTSUNNY   63  34  33 N13G22    30.25F
BLAIR          MOSUNNY   59  37  44 N12       30.26S
FREMONT        MOSUNNY   59  32  37 NE7       30.28S
MILLARD        MOSUNNY   62  33  33 NE5       30.27S
OFFUTT AFB     PTSUNNY   60  38  44 NE7       30.25S
PLATTSMOUTH    CLOUDY    61  28  28 NE7G18    30.25S
WAHOO          FAIR      60  34  37 N6        30.27S
$$




USA.gov is the U.S. government's official web portal to all federal, state and local government web resources and services.